Home   Weather   Sibiu   Past weeks

Flag for Romania Past Weather in Sibiu, Romania — Yesterday and Last 2 Weeks

Now
46 °F

Passing clouds.


Feels Like: 45 °F
Forecast: 41 / 65 °F
Wind: 3 mph from Northwest

Location: Sibiu Airport

Current Time: Sep 27, 2016 at 1:40:53 AM

Latest Report: Sep 27, 2016 at 1:00 AM


Visibility: N/A

Pressure: 30.24 "Hg

Humidity: 82%

Dew Point: 41 °F

Location of SibiuLocation

Past Weather in Sibiu — Graph

°F

Sibiu Temperature Yesterday

Maximum temperature yesterday: 63 °F (at 3:30 PM)
Minimum temperature yesterday: 37 °F (at 5:00 AM)
Average temperature yesterday: 50 °F

High & Low Weather Summary for the Past Weeks

 TemperatureHumidityPressure
High82 °F (Sep 12, 2:00 PM)100% (Sep 13, 7:00 AM)30.36 "Hg (Sep 13, 7:00 AM)
Low37 °F (Sep 24, 6:30 AM)30% (Sep 12, 4:00 PM)29.62 "Hg (Sep 20, 4:00 AM)
Average60 °F72%30.05 "Hg
* Reported Sep 12 12:00 AM — Sep 27 12:00 AM, Sibiu, Weather by CustomWeather, © 2016

Note: Actual official high and low records may vary slightly from our data, if they occured in-between our weather recording intervals... More about our weather records

Advertising

Sibiu Weather History for the Previous 24 Hours

Scroll right to see more
 ConditionsComfort  
Time TempWeatherWind HumidityBarometerVisibility
12:00 AM
Tue, Sep 27
46 °FClear.No wind87%30.24 "Hg10 mi
11:00 PM
Mon, Sep 26
50 °FClear.3 mph76%30.24 "Hg10 mi
10:00 PM52 °FPassing clouds.No wind77%30.24 "HgN/A
9:00 PM50 °FPassing clouds.2 mph82%30.21 "HgN/A
8:30 PM52 °FPassing clouds.2 mph77%30.21 "HgN/A
8:00 PM52 °FPassing clouds.5 mph77%30.21 "HgN/A
7:30 PM54 °FPassing clouds.6 mph72%30.18 "HgN/A
7:00 PM57 °FScattered clouds.5 mph67%30.18 "HgN/A
6:30 PM59 °FBroken clouds.2 mph55%30.18 "HgN/A
5:00 PM63 °FPartly sunny.5 mph42%30.18 "HgN/A
4:30 PM63 °FPassing clouds.5 mph45%30.18 "HgN/A
4:00 PM63 °FPassing clouds.6 mph49%30.18 "HgN/A
3:30 PM63 °FPassing clouds.3 mph45%30.18 "HgN/A
3:00 PM61 °FPassing clouds.8 mph48%30.18 "HgN/A
2:00 PM61 °FPassing clouds.7 mph52%30.18 "HgN/A
1:30 PM59 °FPassing clouds.6 mph51%30.18 "HgN/A
1:00 PM59 °FSunny.3 mph59%30.18 "Hg10 mi
12:30 PM55 °FSunny.5 mph67%30.18 "Hg10 mi
12:00 PM55 °FSunny.2 mph67%30.18 "Hg10 mi
11:30 AM52 °FSunny.3 mph77%30.18 "Hg10 mi
11:00 AM46 °FPassing clouds.5 mph100%30.18 "Hg5 mi
10:30 AM46 °FFog.1 mph93%30.18 "Hg2 mi
10:00 AM43 °FFog.1 mph100%30.18 "Hg1 mi
9:30 AM43 °FFog.2 mph93%30.18 "Hg0 mi
9:00 AM43 °FFog.1 mph93%30.18 "Hg0 mi
8:30 AM41 °FFog.1 mph100%30.15 "Hg0 mi
8:00 AM41 °FFog.1 mph93%30.15 "Hg0 mi
7:30 AM41 °FFog.No wind100%30.15 "Hg1 mi
6:30 AM41 °FFog.1 mph93%30.15 "Hg0 mi
6:00 AM37 °FFog.2 mph100%30.15 "Hg1 mi
5:30 AM37 °FFog.2 mph100%30.15 "Hg1 mi
5:00 AM37 °FFog.1 mph100%30.15 "Hg3 mi
4:00 AM41 °FClear.3 mph93%30.15 "Hg10 mi
3:00 AM43 °FClear.5 mph93%30.15 "Hg10 mi
2:00 AM45 °FClear.3 mph100%30.15 "Hg10 mi
1:00 AM46 °FClear.2 mph93%30.12 "Hg10 mi
Weather by CustomWeather, © 2016

See weather overviewHow to use our weather pages